QPF
0.04 0.05 0.05 0.04 0.05 0.05 0.06 0.06 0.05 0.03 0.02 0.03 0.04 0.04 0.04 0.03 0.05 0.05 0.05 0.05 0.05 0.05 0.06 0.05 0.06 0.07 0.09 0.08 0.07 0.05 0.04 0.04 0.04 0.05 0.05 0.06 0.07 0.06
0.04 0.06 0.06 0.05 0.05 0.05 0.07 0.08 0.07 0.05 0.02 0.02 0.03 0.04 0.03 0.03 0.05 0.05 0.05 0.07 0.06 0.06 0.06 0.05 0.06 0.06 0.06 0.07 0.07 0.07 0.06 0.05 0.05 0.05 0.05 0.05 0.06 0.06
0.05 0.06 0.07 0.06 0.05 0.05 0.07 0.08 0.09 0.08 0.05 0.03 0.03 0.03 0.03 0.04 0.04 0.03 0.04 0.05 0.05 0.05 0.05 0.05 0.06 0.06 0.07 0.07 0.07 0.07 0.06 0.06 0.06 0.05 0.04 0.04 0.04 0.04
0.06 0.09 0.08 0.07 0.06 0.07 0.07 0.08 0.09 0.09 0.08 0.06 0.04 0.04 0.05 0.05 0.04 0.03 0.04 0.04 0.05 0.06 0.06 0.06 0.06 0.06 0.07 0.07 0.07 0.07 0.07 0.07 0.06 0.05 0.05 0.05 0.04 0.04
0.07 0.07 0.07 0.07 0.07 0.09 0.09 0.09 0.11 0.12 0.10 0.06 0.04 0.04 0.04 0.05 0.05 0.05 0.07 0.08 0.08 0.07 0.07 0.06 0.07 0.07 0.08 0.08 0.09 0.10 0.09 0.09 0.08 0.07 0.07 0.06 0.06 0.06
0.08 0.08 0.07 0.06 0.07 0.09 0.08 0.09 0.10 0.09 0.08 0.07 0.06 0.05 0.04 0.05 0.05 0.06 0.07 0.07 0.06 0.06 0.05 0.06 0.08 0.09 0.11 0.11 0.11 0.09 0.08 0.07 0.07 0.08 0.08 0.08 0.08 0.07
0.10 0.09 0.08 0.08 0.08 0.07 0.06 0.05 0.05 0.05 0.06 0.06 0.04 0.04 0.04 0.04 0.05 0.05 0.05 0.05 0.05 0.04 0.03 0.05 0.06 0.06 0.06 0.06 0.05 0.05 0.05 0.05 0.06 0.08 0.09 0.09 0.09 0.09
0.06 0.05 0.05 0.05 0.06 0.05 0.05 0.05 0.05 0.05 0.05 0.04 0.04 0.03 0.02 0.02 0.02 0.02 0.02 0.02 0.02 0.02 0.02 0.03 0.03 0.03 0.03 0.03 0.04 0.05 0.06 0.06 0.06 0.06 0.07 0.08 0.09 0.09
0.06 0.05 0.05 0.04 0.04 0.05 0.05 0.05 0.05 0.04 0.04 0.04 0.03 0.02 0.01 0.01 0.01 0.01 0.01 0.01 0.01 0.01 0.02 0.02 0.03 0.03 0.03 0.04 0.04 0.04 0.04 0.05 0.05 0.06 0.07 0.07 0.08 0.09
0.07 0.04 0.03 0.02 0.03 0.03 0.03 0.03 0.03 0.03 0.03 0.03 0.02 0.01 0.02 0.02 0.02 0.02 0.01 0.01 0.01 0.01 0.01 0.02 0.02 0.02 0.02 0.02 0.03 0.04 0.04 0.05 0.06 0.06 0.07 0.08 0.09 0.11
0.07 0.07 0.06 0.06 0.07 0.05 0.04 0.03 0.02 0.02 0.02 0.02 0.02 0.02 0.03 0.03 0.03 0.03 0.02 0.02 0.02 0.02 0.02 0.03 0.03 0.04 0.03 0.03 0.03 0.04 0.04 0.04 0.04 0.04 0.04 0.04 0.05 0.05
0.05 0.08 0.09 0.09 0.07 0.04 0.02 0.02 0.01 0.01 0.01 0.01 0.02 0.03 0.03 0.04 0.04 0.04 0.04 0.05 0.04 0.04 0.03 0.04 0.05 0.05 0.05 0.04 0.03 0.03 0.03 0.03 0.03 0.03 0.03 0.03 0.03 0.03
0.03 0.03 0.04 0.04 0.03 0.03 0.02 0.01 0.02 0.02 0.03 0.03 0.04 0.05 0.06 0.06 0.06 0.05 0.05 0.04 0.04 0.04 0.04 0.04 0.04 0.04 0.04 0.03 0.03 0.03 0.03 0.03 0.03 0.03 0.02 0.02 0.02 0.02
0.02 0.02 0.02 0.03 0.02 0.02 0.01 0.01 0.02 0.02 0.03 0.04 0.05 0.06 0.07 0.07 0.08 0.07 0.07 0.07 0.06 0.05 0.05 0.04 0.04 0.03 0.03 0.03 0.03 0.02 0.02 0.03 0.03 0.02 0.01 0.01 0.02 0.02
0.01 0.01 0.01 0.01 0.01 0.01 0.01 0.01 0.01 0.01 0.02 0.03 0.04 0.04 0.05 0.06 0.07 0.07 0.07 0.06 0.06 0.05 0.04 0.03 0.03 0.03 0.02 0.02 0.02 0.02 0.02 0.02 0.02 0.02 0.02 0.02 0.02 0.03
0.01 0.01 0.01 0.01 0.01 0.01 0.01 0.01 0.01 0.01 0.02 0.02 0.02 0.02 0.04 0.06 0.06 0.05 0.05 0.04 0.03 0.03 0.02 0.02 0.02 0.02 0.02 0.02 0.02 0.02 0.03 0.03 0.03 0.03 0.02 0.02 0.01 0.01
0.02 0.01 0.01 0.01 0.01 0.01 0.01 0.01 0.01 0.01 0.02 0.02 0.02 0.02 0.03 0.03 0.03 0.02 0.02 0.02 0.02 0.02 0.01 0.01 0.01 0.02 0.02 0.02 0.02 0.03 0.03 0.02 0.01 0.01 0.01 0.01 0.00 0.01
0.01 0.01 0.01 0.02 0.02 0.03 0.03 0.03 0.02 0.02 0.01 0.02 0.02 0.02 0.02 0.02 0.02 0.02 0.02 0.02 0.02 0.02 0.02 0.02 0.02 0.02 0.02 0.01 0.01 0.01 0.01 0.00 0.00 0.00 0.00 0.00 0.01 0.01
0.03 0.03 0.03 0.03 0.03 0.03 0.03 0.03 0.03 0.03 0.02 0.02 0.01 0.01 0.02 0.02 0.03 0.03 0.03 0.03 0.03 0.03 0.03 0.03 0.03 0.03 0.03 0.02 0.01 0.00 0.00 0.00 0.01 0.00 0.00 0.01 0.01 0.01
0.02 0.02 0.03 0.03 0.03 0.03 0.02 0.02 0.02 0.02 0.01 0.01 0.01 0.01 0.01 0.01 0.02 0.02 0.03 0.04 0.04 0.04 0.04 0.04 0.03 0.02 0.02 0.01 0.01 0.00 0.01 0.01 0.01 0.01 0.01 0.01 0.01 0.01
0.01 0.01 0.01 0.01 0.02 0.02 0.02 0.02 0.02 0.01 0.01 0.02 0.02 0.02 0.02 0.02 0.02 0.02 0.03 0.03 0.03 0.03 0.03 0.03 0.03 0.03 0.03 0.03 0.02 0.01 0.01 0.02 0.02 0.02 0.01 0.02 0.02 0.02
0.01 0.01 0.01 0.01 0.02 0.02 0.02 0.01 0.01 0.01 0.01 0.01 0.01 0.01 0.01 0.01 0.02 0.02 0.03 0.04 0.04 0.03 0.03 0.02 0.02 0.03 0.04 0.04 0.03 0.03 0.04 0.04 0.04 0.04 0.04 0.03 0.03 0.02
0.02 0.02 0.01 0.01 0.01 0.01 0.02 0.02 0.02 0.02 0.02 0.01 0.01 0.01 0.01 0.01 0.02 0.02 0.01 0.01 0.01 0.01 0.01 0.01 0.01 0.01 0.01 0.02 0.02 0.02 0.03 0.02 0.02 0.02 0.02 0.03 0.02 0.02
MSLP
1014.92 1015.23 1015.58 1015.96 1016.30 1016.56 1016.72 1016.76 1016.68 1016.52 1016.31 1016.07 1015.85 1015.67 1015.53 1015.43 1015.38 1015.36 1015.37 1015.41 1015.48 1015.60 1015.76 1015.95 1016.18 1016.42 1016.64 1016.82 1016.95 1017.02 1017.01 1016.95 1016.86 1016.75 1016.65 1016.58 1016.55 1016.55
1014.27 1014.54 1014.87 1015.22 1015.54 1015.81 1015.99 1016.08 1016.07 1016.00 1015.87 1015.74 1015.61 1015.50 1015.43 1015.39 1015.38 1015.39 1015.43 1015.49 1015.59 1015.73 1015.91 1016.14 1016.39 1016.65 1016.90 1017.10 1017.24 1017.30 1017.29 1017.21 1017.08 1016.92 1016.77 1016.64 1016.54 1016.48
1013.84 1014.07 1014.34 1014.63 1014.91 1015.15 1015.33 1015.43 1015.48 1015.47 1015.44 1015.40 1015.38 1015.37 1015.39 1015.43 1015.48 1015.55 1015.63 1015.73 1015.86 1016.03 1016.25 1016.50 1016.78 1017.07 1017.34 1017.56 1017.71 1017.78 1017.77 1017.68 1017.54 1017.36 1017.18 1017.00 1016.86 1016.74
1013.70 1013.88 1014.09 1014.31 1014.52 1014.70 1014.85 1014.95 1015.02 1015.07 1015.11 1015.16 1015.23 1015.32 1015.43 1015.56 1015.68 1015.81 1015.95 1016.09 1016.26 1016.47 1016.71 1016.98 1017.28 1017.59 1017.87 1018.11 1018.27 1018.35 1018.35 1018.27 1018.13 1017.95 1017.76 1017.58 1017.41 1017.27
1013.92 1014.04 1014.18 1014.32 1014.45 1014.57 1014.66 1014.74 1014.81 1014.89 1014.98 1015.10 1015.25 1015.43 1015.62 1015.82 1016.01 1016.20 1016.38 1016.57 1016.77 1016.99 1017.25 1017.53 1017.84 1018.14 1018.42 1018.66 1018.82 1018.91 1018.92 1018.85 1018.73 1018.57 1018.40 1018.23 1018.07 1017.93
1014.47 1014.55 1014.62 1014.69 1014.75 1014.80 1014.84 1014.88 1014.94 1015.02 1015.14 1015.31 1015.51 1015.75 1016.00 1016.25 1016.49 1016.72 1016.94 1017.15 1017.36 1017.59 1017.84 1018.11 1018.40 1018.68 1018.94 1019.15 1019.30 1019.38 1019.39 1019.34 1019.23 1019.10 1018.96 1018.83 1018.70 1018.59
1015.30 1015.35 1015.39 1015.40 1015.41 1015.40 1015.39 1015.40 1015.43 1015.51 1015.64 1015.82 1016.05 1016.31 1016.59 1016.87 1017.14 1017.39 1017.61 1017.82 1018.03 1018.24 1018.47 1018.71 1018.95 1019.19 1019.40 1019.57 1019.68 1019.73 1019.72 1019.67 1019.58 1019.47 1019.36 1019.27 1019.18 1019.11
1016.31 1016.36 1016.38 1016.38 1016.35 1016.31 1016.27 1016.25 1016.27 1016.33 1016.45 1016.63 1016.86 1017.12 1017.40 1017.68 1017.95 1018.19 1018.40 1018.59 1018.77 1018.95 1019.13 1019.31 1019.49 1019.66 1019.81 1019.91 1019.96 1019.96 1019.92 1019.84 1019.75 1019.65 1019.56 1019.49 1019.44 1019.41
1017.42 1017.49 1017.52 1017.52 1017.49 1017.45 1017.41 1017.38 1017.38 1017.43 1017.54 1017.69 1017.90 1018.14 1018.39 1018.65 1018.88 1019.10 1019.28 1019.44 1019.58 1019.70 1019.83 1019.94 1020.05 1020.14 1020.19 1020.21 1020.19 1020.12 1020.02 1019.90 1019.77 1019.65 1019.56 1019.49 1019.46 1019.45
1018.53 1018.63 1018.70 1018.73 1018.74 1018.72 1018.69 1018.67 1018.68 1018.71 1018.80 1018.93 1019.10 1019.30 1019.51 1019.72 1019.91 1020.08 1020.22 1020.33 1020.42 1020.49 1020.55 1020.60 1020.63 1020.63 1020.60 1020.53 1020.42 1020.27 1020.09 1019.90 1019.72 1019.55 1019.43 1019.34 1019.29 1019.28
1019.59 1019.73 1019.86 1019.94 1020.00 1020.02 1020.03 1020.03 1020.04 1020.07 1020.13 1020.23 1020.36 1020.51 1020.67 1020.82 1020.97 1021.08 1021.17 1021.24 1021.28 1021.30 1021.30 1021.28 1021.24 1021.17 1021.06 1020.90 1020.70 1020.46 1020.20 1019.94 1019.68 1019.45 1019.27 1019.13 1019.04 1019.00
1020.59 1020.78 1020.96 1021.11 1021.22 1021.29 1021.34 1021.36 1021.38 1021.41 1021.45 1021.51 1021.60 1021.70 1021.80 1021.91 1021.99 1022.06 1022.11 1022.13 1022.13 1022.10 1022.05 1021.98 1021.88 1021.74 1021.56 1021.33 1021.06 1020.75 1020.41 1020.07 1019.73 1019.43 1019.17 1018.96 1018.81 1018.71
1021.54 1021.78 1022.01 1022.21 1022.37 1022.49 1022.57 1022.61 1022.64 1022.66 1022.68 1022.71 1022.76 1022.81 1022.87 1022.92 1022.96 1022.98 1022.99 1022.97 1022.93 1022.87 1022.78 1022.67 1022.52 1022.33 1022.10 1021.82 1021.49 1021.12 1020.72 1020.31 1019.91 1019.53 1019.19 1018.91 1018.69 1018.51
1022.47 1022.74 1023.01 1023.25 1023.45 1023.60 1023.70 1023.76 1023.79 1023.80 1023.80 1023.80 1023.81 1023.82 1023.83 1023.84 1023.84 1023.83 1023.79 1023.74 1023.67 1023.57 1023.45 1023.31 1023.12 1022.90 1022.64 1022.32 1021.96 1021.55 1021.11 1020.66 1020.20 1019.77 1019.37 1019.02 1018.71 1018.46
1023.40 1023.70 1023.99 1024.25 1024.46 1024.62 1024.73 1024.79 1024.81 1024.81 1024.79 1024.76 1024.74 1024.72 1024.70 1024.68 1024.64 1024.59 1024.52 1024.44 1024.33 1024.20 1024.05 1023.87 1023.66 1023.41 1023.12 1022.79 1022.40 1021.98 1021.52 1021.05 1020.57 1020.10 1019.65 1019.24 1018.87 1018.55
1024.35 1024.65 1024.94 1025.20 1025.41 1025.57 1025.67 1025.72 1025.73 1025.71 1025.67 1025.63 1025.58 1025.54 1025.49 1025.43 1025.37 1025.29 1025.18 1025.06 1024.92 1024.75 1024.56 1024.34 1024.10 1023.82 1023.51 1023.16 1022.77 1022.35 1021.89 1021.41 1020.92 1020.44 1019.97 1019.52 1019.10 1018.72
1025.27 1025.57 1025.85 1026.09 1026.29 1026.43 1026.51 1026.55 1026.55 1026.52 1026.47 1026.41 1026.35 1026.28 1026.21 1026.13 1026.04 1025.92 1025.78 1025.61 1025.42 1025.21 1024.97 1024.70 1024.42 1024.11 1023.77 1023.41 1023.01 1022.59 1022.14 1021.67 1021.19 1020.71 1020.23 1019.76 1019.31 1018.88
1026.14 1026.42 1026.68 1026.90 1027.08 1027.20 1027.27 1027.30 1027.29 1027.25 1027.19 1027.13 1027.05 1026.98 1026.89 1026.78 1026.65 1026.50 1026.31 1026.10 1025.85 1025.57 1025.27 1024.95 1024.62 1024.26 1023.89 1023.50 1023.09 1022.67 1022.22 1021.76 1021.29 1020.82 1020.34 1019.87 1019.40 1018.93
1026.91 1027.17 1027.41 1027.62 1027.77 1027.88 1027.95 1027.97 1027.95 1027.91 1027.86 1027.79 1027.71 1027.62 1027.51 1027.37 1027.21 1027.01 1026.77 1026.50 1026.19 1025.85 1025.49 1025.11 1024.71 1024.30 1023.88 1023.46 1023.03 1022.58 1022.13 1021.68 1021.21 1020.74 1020.26 1019.79 1019.31 1018.83
1027.54 1027.79 1028.02 1028.21 1028.36 1028.46 1028.52 1028.54 1028.54 1028.50 1028.45 1028.38 1028.29 1028.18 1028.05 1027.88 1027.68 1027.44 1027.15 1026.82 1026.45 1026.05 1025.62 1025.17 1024.71 1024.25 1023.78 1023.31 1022.84 1022.37 1021.89 1021.42 1020.95 1020.47 1019.99 1019.51 1019.03 1018.55
1028.02 1028.26 1028.48 1028.66 1028.81 1028.92 1028.99 1029.03 1029.03 1029.00 1028.95 1028.88 1028.78 1028.65 1028.49 1028.29 1028.04 1027.75 1027.42 1027.03 1026.61 1026.15 1025.67 1025.17 1024.65 1024.13 1023.61 1023.09 1022.57 1022.06 1021.55 1021.05 1020.55 1020.06 1019.57 1019.08 1018.60 1018.11
1028.34 1028.58 1028.80 1028.99 1029.15 1029.27 1029.36 1029.41 1029.42 1029.40 1029.35 1029.26 1029.14 1028.99 1028.79 1028.55 1028.27 1027.94 1027.56 1027.14 1026.68 1026.18 1025.66 1025.12 1024.56 1024.00 1023.43 1022.86 1022.29 1021.73 1021.17 1020.63 1020.09 1019.56 1019.05 1018.55 1018.07 1017.59
1028.52 1028.76 1028.99 1029.19 1029.36 1029.50 1029.61 1029.67 1029.69 1029.67 1029.61 1029.51 1029.36 1029.18 1028.94 1028.67 1028.35 1027.98 1027.58 1027.13 1026.65 1026.14 1025.60 1025.04 1024.46 1023.87 1023.27 1022.65 1022.04 1021.43 1020.82 1020.22 1019.64 1019.07 1018.53 1018.02 1017.53 1017.06
Thickness
5735 5734 5732 5731 5730 5729 5727 5724 5718 5714 5716 5721 5722 5724 5723 5723 5722 5721 5719 5718 5717 5716 5714 5713 5711 5710 5708 5707 5705 5703 5701 5700 5698 5696 5694 5692 5691 5689
5735 5733 5732 5731 5730 5728 5727 5724 5722 5718 5715 5718 5719 5720 5720 5720 5719 5718 5716 5715 5713 5712 5711 5709 5708 5707 5705 5704 5703 5701 5699 5697 5695 5693 5691 5690 5688 5687
5734 5732 5731 5730 5728 5727 5725 5724 5721 5719 5715 5715 5716 5717 5716 5716 5715 5713 5712 5711 5709 5708 5707 5705 5704 5703 5702 5700 5699 5697 5695 5694 5691 5690 5688 5687 5685 5684
5731 5730 5729 5728 5727 5725 5724 5722 5720 5719 5715 5712 5712 5712 5712 5711 5710 5709 5708 5706 5704 5703 5702 5701 5699 5698 5697 5696 5694 5693 5691 5689 5687 5685 5684 5682 5681 5679
5729 5727 5727 5726 5724 5724 5722 5720 5718 5717 5714 5711 5708 5707 5706 5706 5704 5703 5702 5700 5699 5698 5696 5695 5693 5692 5691 5690 5688 5686 5685 5683 5681 5680 5678 5677 5675 5673
5727 5725 5724 5723 5722 5721 5720 5717 5715 5712 5709 5706 5703 5701 5700 5700 5698 5696 5694 5693 5692 5691 5689 5688 5687 5685 5684 5683 5681 5679 5678 5676 5674 5673 5671 5669 5667 5666
5724 5722 5721 5720 5719 5718 5716 5714 5711 5707 5704 5700 5697 5694 5693 5691 5690 5689 5687 5686 5684 5682 5681 5680 5678 5677 5675 5673 5672 5671 5669 5668 5666 5664 5662 5660 5659 5657
5720 5718 5716 5715 5713 5712 5710 5708 5706 5702 5698 5695 5691 5688 5686 5685 5683 5683 5681 5679 5676 5674 5672 5670 5669 5667 5665 5664 5663 5662 5660 5659 5657 5654 5652 5651 5648 5646
5715 5713 5712 5710 5708 5706 5704 5702 5699 5696 5694 5690 5686 5683 5681 5680 5678 5676 5673 5671 5668 5665 5664 5661 5659 5657 5655 5653 5653 5651 5649 5648 5646 5644 5642 5639 5637 5635
5711 5708 5706 5704 5703 5701 5698 5695 5692 5689 5687 5684 5681 5678 5677 5674 5672 5670 5667 5663 5660 5657 5655 5651 5649 5646 5645 5643 5641 5640 5638 5636 5634 5632 5630 5628 5626 5624
5705 5703 5701 5699 5697 5695 5693 5689 5684 5681 5679 5677 5674 5672 5669 5667 5665 5663 5659 5656 5652 5649 5645 5642 5639 5637 5634 5632 5630 5628 5626 5624 5622 5620 5618 5616 5614 5612
5698 5696 5694 5693 5691 5688 5686 5682 5677 5674 5672 5670 5667 5664 5661 5659 5657 5654 5652 5648 5643 5639 5635 5632 5629 5626 5624 5620 5618 5615 5613 5611 5609 5607 5606 5603 5601 5599
5692 5689 5687 5685 5683 5680 5677 5674 5670 5667 5664 5661 5658 5655 5652 5650 5647 5644 5641 5639 5635 5630 5626 5623 5619 5615 5612 5609 5606 5603 5601 5599 5597 5594 5593 5590 5588 5585
5684 5682 5679 5676 5674 5671 5668 5665 5662 5659 5656 5652 5648 5644 5641 5638 5636 5633 5630 5627 5624 5620 5616 5612 5609 5605 5601 5598 5594 5591 5589 5586 5583 5581 5579 5577 5575 5572
5676 5673 5671 5668 5665 5662 5658 5655 5653 5650 5646 5642 5637 5633 5630 5627 5625 5622 5620 5616 5613 5609 5605 5601 5598 5594 5591 5587 5583 5579 5577 5574 5570 5568 5566 5563 5561 5559
5667 5664 5661 5658 5655 5652 5648 5645 5642 5638 5635 5631 5626 5623 5620 5617 5614 5611 5608 5605 5601 5597 5593 5589 5586 5583 5579 5574 5570 5567 5563 5560 5557 5555 5552 5550 5548 5546
5659 5655 5651 5648 5645 5641 5637 5634 5631 5628 5624 5620 5616 5613 5609 5606 5602 5599 5595 5592 5589 5585 5581 5577 5573 5570 5566 5562 5558 5554 5550 5547 5544 5541 5539 5538 5536 5533
5651 5646 5641 5638 5634 5630 5627 5623 5619 5616 5613 5609 5606 5602 5598 5595 5591 5587 5584 5580 5576 5572 5568 5564 5561 5559 5554 5549 5544 5541 5538 5534 5531 5528 5526 5525 5524 5521
5641 5636 5631 5628 5624 5620 5616 5613 5609 5605 5601 5598 5595 5591 5588 5584 5580 5576 5572 5568 5564 5559 5555 5551 5548 5546 5543 5539 5533 5527 5524 5521 5519 5516 5513 5511 5509 5507
5629 5625 5621 5617 5614 5610 5607 5603 5599 5595 5591 5587 5584 5580 5576 5572 5568 5564 5560 5556 5552 5548 5544 5540 5535 5531 5528 5524 5520 5516 5511 5508 5506 5504 5501 5498 5496 5493
5618 5614 5611 5607 5604 5600 5597 5592 5588 5584 5580 5577 5573 5568 5565 5561 5557 5552 5548 5543 5540 5537 5533 5528 5522 5517 5513 5510 5509 5506 5500 5495 5492 5490 5489 5488 5487 5485
5607 5604 5600 5597 5593 5590 5586 5582 5578 5574 5570 5567 5562 5558 5554 5549 5545 5541 5537 5533 5528 5524 5520 5516 5511 5508 5504 5501 5498 5494 5491 5486 5482 5479 5476 5474 5473 5472
5596 5593 5589 5586 5582 5579 5575 5571 5568 5564 5559 5556 5552 5547 5543 5538 5534 5530 5525 5521 5517 5513 5509 5505 5501 5497 5493 5489 5485 5482 5479 5476 5473 5471 5468 5464 5461 5458